Probability
52 58 55 48 52 42 39 39 35 35 23 26 13 13 13 13 3 13 13 6 3 0 0 0 0 0 0 0 0 0 0 0 0 0 0 6 10 10
48 55 52 42 39 45 35 45 42 35 42 26 13 6 16 3 3 10 13 6 3 0 0 0 0 0 0 0 0 0 0 0 0 0 0 0 0 0
39 32 45 42 45 45 42 35 35 39 39 26 16 13 19 16 10 13 13 13 13 3 0 0 0 0 0 0 0 0 0 0 0 0 0 0 0 0
32 29 32 29 42 39 39 32 35 39 35 23 13 10 19 19 19 19 10 6 13 6 0 0 0 0 0 0 0 0 0 0 0 0 0 0 0 0
32 32 29 32 42 32 35 32 29 16 23 23 10 13 13 13 13 13 10 13 10 6 3 0 0 0 0 0 0 0 0 0 0 0 0 0 0 0
26 23 23 26 26 26 23 26 29 26 23 19 10 10 10 10 16 13 13 13 10 6 6 6 0 0 0 0 0 0 0 0 0 0 0 0 0 0
23 19 19 19 16 16 13 16 16 19 16 16 10 10 10 10 6 6 3 6 13 6 10 6 6 6 0 0 0 0 0 0 0 0 0 0 0 0
16 19 16 13 13 6 6 6 10 16 16 16 3 3 16 10 6 6 3 3 3 6 6 10 10 6 10 6 0 0 0 0 0 0 0 0 0 0
19 19 16 13 13 13 10 0 3 3 3 16 10 10 10 10 10 6 6 6 6 3 6 6 10 10 10 3 0 0 0 0 0 0 0 0 0 0
23 19 23 23 16 16 16 13 13 10 3 3 13 13 10 13 13 6 6 6 10 10 6 6 6 6 3 3 0 0 0 0 0 0 0 0 0 0
19 19 19 19 16 10 16 13 13 10 0 0 0 0 0 0 3 10 6 6 6 6 6 3 3 6 3 0 0 0 0 0 0 0 0 0 0 0
23 19 10 13 13 3 13 16 13 13 10 3 0 0 0 0 0 3 10 10 10 6 6 6 3 3 3 3 0 0 0 0 0 0 0 0 0 0
23 23 16 6 0 0 0 10 10 10 6 6 6 10 6 6 6 6 10 10 13 10 6 6 3 3 3 3 0 0 0 0 0 0 0 0 0 0
26 26 16 3 0 0 0 3 0 0 3 6 6 10 10 6 6 10 13 13 16 13 16 10 6 6 6 3 3 0 0 0 0 0 0 0 0 0
13 6 3 0 0 0 0 0 0 0 3 3 6 6 6 6 3 6 6 10 10 6 6 13 10 6 6 6 3 3 0 0 0 0 0 0 0 0
3 3 0 0 0 0 0 0 0 3 3 6 6 10 6 6 6 6 6 6 6 3 6 10 10 10 3 3 3 3 0 0 0 0 0 0 0 0
3 3 3 3 0 3 3 0 6 6 3 3 10 6 3 3 3 3 6 0 0 0 3 6 6 6 3 0 3 3 3 0 0 0 0 0 0 0
3 3 6 6 3 3 3 3 3 3 3 0 0 3 3 3 3 3 6 3 0 0 0 0 0 0 0 0 0 0 3 3 3 3 0 0 0 0
3 3 6 6 6 6 3 3 3 3 6 3 3 0 0 0 0 0 3 3 3 0 0 0 0 0 0 0 3 0 3 3 3 3 0 0 0 0
3 3 6 3 0 3 3 3 3 3 6 6 3 3 0 0 0 0 0 0 0 0 0 0 0 0 0 0 3 3 0 3 3 3 3 0 3 0
3 6 6 0 0 0 0 0 3 3 3 3 3 3 3 3 3 3 3 0 0 0 0 0 0 0 0 0 0 0 3 0 0 3 3 3 0 0
3 3 3 0 0 0 0 0 0 0 0 0 0 0 0 0 0 0 0 0 0 0 0 0 0 0 0 0 0 0 3 3 0 0 0 0 0 0
3 3 0 0 0 0 0 0 0 0 0 0 0 0 0 0 0 0 0 0 0 0 0 0 0 0 0 0 0 0 0 0 0 0 0 0 0 0
Height
5881 5880 5879 5878 5877 5875 5874 5873 5872 5870 5869 5867 5865 5864 5863 5862 5860 5859 5858 5856 5855 5853 5852 5850 5849 5848 5846 5845 5843 5841 5840 5839 5837 5835 5834 5832 5831 5829
5879 5878 5877 5875 5874 5873 5871 5869 5868 5866 5865 5863 5861 5860 5858 5857 5855 5854 5852 5851 5849 5848 5846 5845 5844 5842 5840 5839 5837 5835 5833 5832 5830 5829 5827 5826 5824 5823
5876 5875 5874 5872 5871 5869 5868 5866 5864 5862 5860 5859 5857 5855 5853 5852 5850 5848 5847 5845 5844 5842 5841 5839 5837 5836 5834 5832 5830 5828 5827 5825 5823 5822 5820 5819 5817 5816
5873 5872 5870 5869 5867 5865 5864 5862 5860 5858 5856 5854 5853 5850 5848 5846 5844 5843 5841 5839 5837 5836 5834 5833 5831 5829 5827 5825 5823 5821 5820 5818 5816 5814 5813 5811 5810 5808
5870 5868 5866 5865 5863 5861 5859 5857 5855 5853 5851 5849 5847 5845 5843 5840 5838 5836 5834 5833 5831 5829 5828 5826 5824 5822 5820 5818 5816 5814 5812 5810 5808 5807 5805 5803 5802 5800
5866 5864 5862 5860 5858 5856 5854 5852 5850 5847 5845 5843 5841 5839 5837 5834 5832 5830 5828 5826 5824 5822 5820 5818 5816 5814 5812 5810 5808 5806 5804 5802 5800 5799 5797 5795 5793 5791
5862 5859 5857 5855 5853 5850 5848 5846 5844 5841 5839 5836 5834 5832 5830 5828 5826 5823 5821 5819 5817 5815 5813 5811 5809 5807 5805 5802 5800 5798 5796 5794 5792 5790 5788 5786 5784 5783
5857 5854 5852 5850 5847 5845 5842 5840 5838 5835 5833 5830 5827 5825 5823 5821 5819 5816 5814 5812 5810 5808 5805 5803 5801 5799 5796 5794 5792 5790 5788 5786 5784 5781 5779 5777 5775 5773
5852 5849 5847 5844 5841 5839 5836 5834 5831 5828 5826 5823 5821 5818 5816 5813 5811 5809 5806 5804 5802 5800 5797 5795 5793 5790 5788 5786 5783 5781 5779 5777 5775 5772 5770 5768 5766 5764
5846 5843 5841 5838 5835 5832 5830 5827 5825 5822 5819 5817 5814 5811 5808 5805 5803 5801 5799 5796 5794 5792 5789 5787 5784 5782 5779 5777 5775 5773 5770 5768 5766 5764 5761 5759 5757 5755
5839 5836 5834 5831 5828 5825 5823 5820 5818 5815 5812 5809 5806 5803 5801 5798 5795 5792 5790 5788 5785 5783 5780 5778 5776 5773 5771 5769 5766 5764 5762 5759 5757 5755 5753 5750 5748 5746
5832 5829 5826 5823 5820 5817 5815 5812 5810 5807 5804 5802 5799 5796 5793 5790 5787 5784 5781 5779 5776 5774 5772 5769 5767 5764 5762 5760 5757 5755 5753 5751 5748 5746 5744 5741 5739 5737
5823 5821 5818 5815 5811 5809 5806 5804 5801 5799 5796 5793 5790 5787 5784 5781 5778 5775 5772 5770 5768 5766 5763 5761 5758 5756 5753 5751 5749 5746 5744 5742 5739 5737 5735 5733 5731 5729
5814 5812 5809 5806 5802 5800 5797 5795 5793 5790 5787 5784 5781 5778 5775 5772 5769 5766 5764 5761 5759 5756 5754 5751 5749 5747 5744 5742 5740 5737 5735 5733 5731 5728 5726 5724 5722 5720
5805 5803 5800 5797 5794 5791 5788 5785 5783 5781 5778 5775 5772 5769 5766 5763 5760 5757 5755 5752 5749 5747 5744 5742 5740 5737 5735 5733 5730 5728 5726 5724 5722 5720 5718 5716 5714 5712
5797 5794 5791 5788 5785 5782 5779 5776 5773 5771 5768 5765 5762 5759 5756 5753 5750 5747 5745 5742 5740 5738 5735 5733 5730 5728 5726 5723 5721 5719 5717 5715 5713 5711 5709 5707 5705 5703
5787 5784 5782 5779 5776 5773 5769 5767 5764 5761 5758 5755 5752 5749 5746 5743 5741 5738 5735 5732 5730 5728 5726 5723 5721 5719 5716 5714 5712 5710 5708 5706 5704 5702 5700 5698 5696 5694
5777 5774 5771 5769 5766 5763 5760 5757 5754 5751 5748 5745 5742 5739 5736 5733 5731 5728 5725 5723 5721 5718 5716 5714 5711 5710 5707 5705 5703 5701 5699 5697 5695 5693 5691 5690 5688 5686
5766 5764 5761 5758 5755 5752 5750 5747 5744 5741 5738 5735 5732 5729 5726 5723 5721 5718 5716 5713 5711 5709 5707 5704 5702 5700 5698 5696 5694 5691 5689 5687 5686 5684 5682 5681 5679 5677
5756 5753 5751 5748 5745 5742 5739 5736 5733 5731 5727 5724 5721 5718 5715 5713 5711 5708 5706 5704 5701 5699 5697 5695 5693 5690 5688 5687 5685 5682 5680 5678 5676 5675 5673 5671 5670 5668
5745 5742 5740 5738 5735 5732 5729 5726 5723 5720 5717 5714 5711 5708 5705 5703 5701 5699 5696 5694 5691 5689 5687 5685 5683 5680 5678 5677 5675 5673 5671 5669 5667 5666 5664 5662 5660 5659
5733 5731 5729 5726 5724 5721 5718 5715 5712 5709 5706 5703 5700 5697 5695 5693 5691 5689 5686 5684 5682 5679 5677 5675 5673 5671 5669 5667 5665 5663 5661 5660 5658 5656 5655 5653 5651 5650
5721 5719 5717 5715 5712 5709 5707 5704 5701 5698 5695 5692 5690 5687 5685 5683 5681 5679 5677 5674 5672 5670 5667 5665 5663 5661 5659 5657 5655 5653 5651 5650 5648 5647 5646 5644 5642 5641
Wind_Speed
8 9 10 11 11 12 12 13 14 15 15 16 17 17 17 18 18 18 19 20 20 20 21 21 21 21 21 21 22 23 23 24 24 25 25 25 26 26
10 10 11 12 13 13 14 15 16 16 17 17 18 19 19 20 20 20 21 21 21 21 22 22 22 22 22 23 24 24 24 25 25 25 26 26 26 27
11 12 13 14 15 15 16 17 17 18 18 18 19 20 21 21 22 22 23 23 22 23 23 23 23 24 25 25 25 25 26 26 27 27 27 27 27 27
13 14 15 15 16 17 17 18 18 19 20 20 20 21 22 23 23 24 24 25 24 24 25 25 25 26 26 26 26 26 27 27 28 28 28 28 28 28
15 16 16 17 18 19 19 19 20 21 22 22 23 23 24 24 23 24 24 25 25 26 26 26 26 27 27 27 28 28 28 28 28 28 29 29 29 29
16 17 18 18 19 20 20 21 22 23 24 24 24 24 24 24 24 25 25 25 26 27 27 27 28 28 28 28 28 29 29 29 29 29 30 30 30 30
18 18 18 19 20 21 22 23 24 25 25 25 25 25 24 24 25 25 26 27 27 28 29 29 29 29 29 29 30 30 30 30 30 30 31 31 31 31
19 20 20 21 22 23 24 25 25 25 25 25 25 25 25 26 27 27 28 28 28 29 29 29 29 30 30 30 30 31 31 31 31 31 32 31 31 31
21 22 23 23 23 24 25 26 26 26 27 26 27 27 28 28 29 29 28 29 29 29 30 30 30 30 30 30 31 31 31 31 31 31 31 31 31 31
23 24 25 25 26 26 26 27 27 27 28 28 28 28 29 29 29 29 29 30 30 30 31 30 30 30 30 31 31 31 30 31 31 31 31 31 31 31
26 28 28 28 28 28 28 28 28 29 29 29 28 29 29 29 29 30 30 31 31 32 32 31 31 31 31 31 31 31 31 31 31 31 31 31 30 30
29 30 30 31 30 29 28 28 29 30 30 30 30 30 30 30 30 31 31 31 31 31 31 31 31 31 32 32 32 31 31 31 31 30 30 29 29 29
31 31 31 31 31 31 30 30 30 30 30 31 31 31 31 31 31 31 31 30 30 31 32 32 32 32 32 32 31 32 31 31 31 30 30 29 28 28
31 31 31 31 32 32 32 32 32 32 32 33 32 32 32 32 32 31 31 31 32 32 32 32 32 32 32 32 32 31 31 31 30 29 29 29 28 28
32 32 32 32 32 33 33 33 33 33 34 34 33 33 32 32 32 32 32 33 33 33 33 32 32 32 32 32 32 31 30 30 30 29 29 28 28 28
32 32 32 33 33 34 34 34 34 34 34 34 32 32 32 33 33 32 33 33 33 33 32 32 32 32 32 32 32 31 30 29 29 29 29 28 28 28
34 34 34 34 35 36 35 35 35 35 35 35 34 34 33 34 34 33 33 33 33 33 32 31 31 31 31 31 31 30 30 29 29 29 29 28 28 28
34 34 35 35 36 36 36 36 35 36 35 35 35 35 34 34 34 33 33 33 33 32 31 31 31 31 31 30 30 30 30 30 29 29 29 28 28 28
35 36 36 36 36 36 36 36 35 36 36 35 36 36 35 34 33 32 32 32 32 32 32 31 31 31 31 30 30 30 30 29 29 28 28 29 29 28
36 36 36 36 36 36 36 36 36 36 36 36 36 35 34 33 32 31 31 31 32 32 32 31 31 31 30 30 30 30 29 29 28 28 29 29 28 27
36 36 36 37 37 37 37 36 36 36 36 36 36 34 33 33 32 32 31 32 32 32 32 32 32 31 30 29 29 29 30 29 29 30 29 29 28 27
37 38 38 38 38 37 36 36 36 36 36 35 34 33 33 33 33 32 32 31 31 31 31 31 31 30 30 30 30 30 30 30 30 30 29 29 29 28
37 37 38 38 37 37 36 36 35 34 34 34 34 34 34 34 34 33 32 31 31 31 31 32 32 31 31 30 31 30 30 30 30 30 29 29 29 29
Wind_Direction
307 304 304 304 303 303 304 303 302 298 296 297 296 294 292 292 291 291 291 291 291 290 289 288 289 289 289 288 289 288 286 285 286 287 287 286 285 283
305 304 303 302 302 302 304 304 302 301 300 300 299 295 293 292 292 291 291 291 291 291 290 289 288 287 288 289 289 288 287 285 285 286 287 286 284 283
302 300 301 300 301 301 302 302 301 302 301 300 300 296 295 293 293 293 290 290 291 292 291 290 289 288 289 289 289 288 288 286 285 286 286 286 285 284
301 300 301 300 300 300 301 301 301 300 298 297 296 297 296 294 292 292 291 290 291 291 291 290 291 290 290 291 290 289 289 288 287 286 287 286 285 283
301 301 300 300 299 298 298 298 299 298 296 294 293 294 295 295 295 294 293 292 291 291 291 291 291 292 292 291 290 290 289 289 288 287 287 287 286 285
302 301 301 300 299 298 298 297 297 296 296 295 293 293 293 294 296 295 294 293 292 292 292 291 292 292 292 292 291 290 290 289 288 287 288 288 286 285
303 301 301 301 302 301 300 300 299 297 296 295 295 293 294 295 296 297 296 294 293 292 291 291 292 292 292 291 290 290 290 290 289 289 288 288 287 286
304 304 304 303 302 301 300 299 299 298 298 297 298 297 295 296 297 297 296 296 295 295 293 292 291 292 292 291 290 290 290 290 290 290 290 289 288 286
303 303 305 304 302 302 301 300 300 300 299 299 299 298 296 295 296 296 296 296 296 296 294 293 291 292 293 292 291 290 290 291 291 291 290 288 286 285
300 301 301 301 301 300 301 300 299 299 299 299 299 299 297 295 294 295 296 296 295 294 293 293 293 293 293 292 292 292 292 292 291 291 290 288 286 285
296 297 298 298 298 299 299 298 297 298 298 299 299 299 300 299 297 296 296 295 295 294 293 292 293 293 293 292 292 292 292 292 292 292 291 289 287 286
292 294 295 296 297 297 296 296 296 296 296 297 298 298 299 298 297 297 296 294 294 293 293 293 293 293 293 292 292 292 292 291 291 291 291 290 288 287
292 293 294 296 297 297 295 294 294 294 295 296 296 296 296 296 296 295 295 293 292 292 293 292 292 292 293 293 293 291 290 289 290 290 289 289 288 287
293 293 294 296 296 296 296 293 292 293 294 295 295 295 296 296 295 295 294 292 292 292 293 292 291 292 292 293 292 292 291 289 290 290 290 290 288 288
292 293 294 296 296 296 296 295 293 293 294 295 295 295 295 295 295 294 294 293 292 292 292 291 290 291 292 293 292 292 291 290 291 291 290 289 288 288
292 293 294 295 296 296 296 295 293 293 293 295 295 295 295 294 294 294 294 294 293 293 292 291 290 290 290 291 291 291 290 290 290 290 290 289 288 287
289 291 293 294 295 295 294 294 294 294 293 293 295 296 295 295 294 294 293 293 292 292 291 291 290 289 290 290 290 290 289 289 289 289 289 289 288 288
287 289 291 291 292 293 293 293 292 292 293 294 295 296 295 295 294 294 293 292 291 290 290 290 290 290 291 290 289 289 289 288 287 286 286 287 287 287
286 286 287 289 291 292 293 292 291 291 292 293 294 295 294 293 293 292 293 293 291 290 290 289 289 290 290 290 289 289 288 286 285 285 286 285 286 285
284 284 286 289 291 292 292 291 291 291 292 293 293 293 292 292 292 291 291 291 290 290 290 289 289 289 288 288 289 288 287 286 285 285 285 285 284 284
282 283 285 288 290 292 293 292 291 292 293 294 293 292 291 290 290 290 291 291 291 291 290 289 289 288 286 286 288 288 287 285 284 284 285 285 284 283
283 285 286 289 291 292 292 291 291 292 293 293 292 290 290 291 291 291 291 290 291 293 292 290 289 287 287 287 287 287 285 284 282 282 284 284 284 282
285 285 286 288 290 290 290 290 291 291 290 290 291 291 290 290 290 290 290 290 291 292 292 291 289 287 287 287 286 285 284 282 281 281 282 283 282 280